Regional Weather Roundup
Issued by NWS

Home | Current Version | Previous Version | Graphics & Text | Print | Product List | Glossary On
Versions: 1 2 3 4 5 6 7 8 9 10 11 12 13 14 15 16 17 18 19 20 21 22 23 24 25 26 27
000
ASUS45 KSLC 251210
RWRUT

UTAH REGIONAL WEATHER ROUNDUP
NATIONAL WEATHER SERVICE SALT LAKE CITY UT
600 AM MDT SAT OCT 25 2014

UTZ001>011-023>025-251300-

NORTHERN UTAH

CITY           SKY/WX    TMP DP  RH WIND       PRES   REMARKS
BRIGHAM CITY   CLEAR     49  33  52 CALM      30.08S
HILL AFB       CLEAR     54  28  36 SE8       30.09S
LOGAN          CLEAR     33  29  85 CALM      30.09S
OGDEN          CLEAR     53  28  38 S10       30.07S
PROVO AIRPORT  CLEAR     45  28  53 S7        30.14R
SALT LAKE CITY CLEAR     59  30  33 S14       30.06S
VERNAL         CLEAR     41  31  67 W5        30.24S
WENDOVER       CLEAR     43  34  70 N3        30.06S
HEBER CITY     CLEAR     32  28  86 CALM      30.20R
WEST JORDAN    CLEAR     52  36  54 S12       30.10S

$$

UTZ012>022-026-027-251300-

SOUTHERN/CENTRAL UTAH

CITY           SKY/WX    TMP DP  RH WIND       PRES   REMARKS
BLANDING       CLEAR     44  31  59 CALM      30.35S
BRYCE CANYON   PTCLDY    27  23  85 W3        30.36R
CEDAR CITY     PTCLDY    53  32  44 CALM      30.20S
DELTA          CLEAR     54  30  40 S10       30.13S
HANKSVILLE       N/A     37  28  70 CALM      30.22S
MILFORD        CLEAR     39  28  64 SE8       30.16S WCI  33
MOAB/CYNLANDS  CLEAR     49  32  52 VRB5      30.19S
PRICE          CLEAR     44  32  62 N6        30.25S
ST GEORGE      SUNNY     54  30  40 CALM      30.13R
KANAB            N/A     41  30  65 NE6       30.26S

$$

REGIONAL REPORTS     COLORADO/ARIZONA

CITY           SKY/WX    TMP DP  RH WIND       PRES   REMARKS
CRAIG, CO      CLEAR     27  22  81 SW3       30.32R
GRAND JUNCTION CLEAR     44  32  62 SE12      30.25S
RIFLE          CLEAR     37  29  72 CALM      30.32R
MONTROSE       CLEAR     39  28  64 SE8       30.33S WCI  33
CORTEZ         CLEAR     33  26  75 E3        30.31S
PAGE, AZ       CLEAR     55  33  43 S3        30.19R
GRAND CANYON   PTCLDY    30  23  75 CALM      30.33R SMOKE
KINGMAN        CLEAR     63  41  44 S10       30.12S
FLAGSTAFF      CLEAR     36  32  85 CALM      30.35S

$$

REGIONAL REPORTS    NEVADA/IDAHO/WYOMING

CITY           SKY/WX    TMP DP  RH WIND       PRES   REMARKS
LAS VEGAS, NV  CLEAR     66  38  35 SW6       29.98S
ELY            CLEAR     46  29  51 SW14      30.15F
ELKO           CLEAR     58  27  30 W13       30.00F
POCATELLO, ID  CLEAR     35  30  82 N6        30.03S WCI  30
BURLEY         CLEAR     42  33  70 E7        29.96S
EVANSTON, WY   CLEAR     49  19  30 SE5       30.23F
ROCK SPRINGS   PTCLDY    39  26  59 E5        30.25F

$$



USA.gov is the U.S. government's official web portal to all federal, state and local government web resources and services.